#timestamp,LO_Frequency,Hit,StdDev 
1589472015.2,286047000.2,N
1589472035.0,286047000.9,N
1589472035.9,286047000.9,N
1589472055.8,286046998.3,N
1589472075.6,286046996.5,N
1589472095.4,286046999.5,N
1589472115.3,286046999.4,N
1589472135.1,286046999.8,N
1589472155.8,286047002.7,N
1589472175.7,286047001.3,N
1589472195.5,286047003.6,N
1589472215.4,286047005.9,Y
1589472235.2,286047003.0,P
1589472255.0,286047003.1,N
1589472255.9,286047003.1,N
1589472275.8,286047005.4,Y
1589472295.6,286047000.1,P
1589472315.5,286047002.7,N
1589472335.3,286047002.4,N
1589472355.1,286047002.4,N
1589472375.9,286047000.1,N
1589472395.7,286046998.9,N
1589472415.5,286047000.5,N
1589472435.4,286047002.7,N
1589472455.2,286047002.4,N
1589472475.0,286047002.4,N
1589472476.0,286047002.4,N
1589472495.8,286047006.0,Y
1589472515.6,286047004.2,P
1589472535.5,286047004.1,P
1589472555.3,286047003.2,N
1589472575.1,286047005.8,Y
1589472595.9,286047002.7,P
1589472615.7,286046998.1,P
1589472635.6,286047000.7,N
1589472655.4,286047000.9,N
1589472675.2,286046999.7,N
1589472695.1,286047002.4,N
1589472696.0,286047002.4,N
1589472715.8,286046999.7,N
1589472735.6,286047002.5,N
1589472755.5,286047000.0,N
1589472775.3,286046999.9,N
1589472795.1,286047002.1,N
1589472815.9,286047002.8,N
1589472835.7,286047002.7,N
1589472855.6,286047000.0,N
1589472875.4,286047000.7,N
1589472895.2,286047000.6,N
1589472915.1,286047000.0,N
1589472916.0,286047000.0,N
1589472935.8,286047000.6,N
1589472955.6,286046999.0,N
1589472975.5,286046998.7,N
1589472995.3,286047000.8,N
1589473015.2,286046999.0,N
1589473035.9,286046996.9,N
1589473055.7,286046999.1,N
1589473075.6,286047000.2,N
1589473095.4,286046999.8,N
1589473115.2,286047000.0,N
1589473135.1,286046998.4,N
1589473136.0,286046998.4,N
1589473155.8,286046999.2,N
1589473175.7,286047000.5,N
1589473195.5,286046999.9,N
1589473215.3,286046999.7,N
1589473235.2,286047000.1,N
1589473255.9,286047000.9,N
1589473275.7,286047002.6,N
1589473295.6,286047004.4,Y
1589473315.4,286047002.4,P
1589473335.3,286046999.8,N
1589473355.1,286047001.6,N
1589473356.0,286047001.6,N
1589473375.8,286047002.7,N
1589473395.7,286047002.6,N
1589473415.5,286046999.9,N
1589473435.3,286047000.0,N
1589473455.2,286047000.7,N
1589473475.0,286047000.3,N
1589473475.9,286047000.3,N
1589473495.8,286047002.7,N
1589473515.6,286046998.5,N
1589473535.4,286047000.6,N
1589473555.3,286047000.1,N
1589473575.1,286046998.2,N
1589473576.0,286046998.2,N
1589473595.8,286047001.0,N
1589473615.7,286046998.2,N
1589473635.5,286046998.5,N
1589473655.3,286047000.1,N
1589473675.2,286046999.8,N
1589473695.0,286047002.2,N
1589473695.9,286047002.2,N
1589473715.8,286047002.1,N
1589473735.6,286047002.7,N
1589473755.4,286047000.0,N
1589473775.3,286047000.9,N
1589473795.1,286047001.2,N
1589473815.9,286047000.7,N
1589473835.7,286047002.8,N
1589473855.5,286047000.9,N
1589473875.4,286046999.9,N
1589473895.2,286046999.9,N
1589473915.0,286047000.0,N
1589473915.9,286047000.0,N
1589473935.8,286046999.9,N
1589473955.6,286047000.8,N
1589473975.5,286046998.5,N
1589473995.3,286046998.2,N
1589474015.1,286046999.7,N
1589474035.9,286047002.0,N
1589474055.7,286047002.0,N
1589474075.5,286047003.9,N
1589474095.4,286047003.0,N
1589474115.2,286047003.7,N
1589474135.1,286047003.0,N
1589474136.0,286047003.0,N
1589474155.8,286047005.3,Y
1589474175.6,286047003.7,P
1589474195.5,286047003.1,N
1589474215.3,286047004.2,P
1589474235.1,286047004.0,Y
1589474255.9,286047000.9,P
1589474275.7,286046998.1,N
1589474295.6,286047001.2,N
1589474315.4,286047000.5,N
1589474335.2,286047000.3,N
1589474355.1,286047000.4,N
1589474356.0,286047000.4,N
1589474375.8,286047000.5,N
1589474395.6,286047000.2,N
1589474415.5,286047000.4,N
1589474435.3,286047002.1,N
1589474455.2,286047004.3,Y
1589474475.9,286047002.1,P
1589474495.7,286047002.7,P
1589474515.6,286047000.1,N
1589474535.4,286047001.2,N
1589474555.3,286046996.6,Y
1589474575.1,286046998.3,P
1589474576.0,286046998.3,N
1589474595.8,286046999.3,N
1589474615.7,286046996.8,N
1589474635.5,286046996.1,N
1589474655.3,286046993.3,Y
1589474675.2,286046995.2,P
1589474695.0,286046993.7,P
1589474695.9,286046993.7,P
1589474715.8,286046994.4,N
1589474735.6,286046994.2,Y
1589474755.4,286046996.8,P
1589474775.3,286046999.4,N
1589474795.1,286046999.0,N
1589474815.8,286046999.1,N
1589474835.7,286046997.0,N
1589474855.5,286046998.6,N
1589474875.4,286046998.2,N
1589474895.2,286046998.3,N
1589474915.0,286046999.5,N
1589474915.9,286046999.5,N
1589474935.8,286046998.6,N
1589474955.6,286046999.3,N
1589474975.4,286046999.0,N
1589474995.3,286046998.6,N
1589475015.1,286046996.9,N
1589475035.9,286046997.8,N
1589475055.7,286046997.1,N
1589475075.5,286046996.6,N
1589475095.4,286046998.9,N
1589475115.2,286046996.8,N
1589475135.0,286046996.8,N
1589475135.9,286046996.8,N
1589475155.8,286046997.2,N
1589475175.6,286046997.5,N
1589475195.5,286046994.0,Y
1589475215.3,286046997.0,P
1589475235.1,286046999.6,N
1589475255.9,286046996.9,N
1589475275.7,286046996.9,N
1589475295.5,286046997.2,N
1589475315.4,286046997.4,N
1589475335.2,286046995.1,Y
1589475355.1,286046999.0,P
1589475356.0,286046999.0,N
1589475375.8,286046999.4,N
1589475395.6,286046999.4,N
1589475415.5,286046999.4,N
1589475435.3,286046999.6,N
1589475455.1,286046998.3,N
1589475475.9,286047000.1,N
1589475495.7,286047002.6,Y
1589475515.6,286046999.8,P
1589475535.4,286047004.4,P
1589475555.2,286046999.7,N
1589475575.1,286047000.2,N
1589475576.0,286047000.2,N
1589475595.8,286047001.0,N
